Regional Weather Roundup
Issued by NWS

Home | Current Version | Previous Version | Graphics & Text | Print | Product List | Glossary On
Versions: 1 2 3 4 5 6 7 8 9 10 11 12 13 14 15 16 17 18 19 20 21 22 23 24 25 26 27 28 29 30 31 32 33 34 35 36 37 38 39 40 41 42 43 44 45 46 47 48 49 50
803
ASUS45 KTFX 240410
RWRMT
MONTANA REGIONAL WEATHER ROUNDUP
NATIONAL WEATHER SERVICE GREAT FALLS MT
1000 PM MDT MON MAY 23 2016

NOTE: "FAIR" INDICATES FEW OR NO CLOUDS BELOW 12000 FEET WITH NO
SIGNIFICANT WEATHER AND/OR OBSTRUCTIONS TO VISIBILITY.

MTZ001>007-043-240500-
WEST OF THE DIVIDE

CITY           SKY/WX    TMP DP  RH WIND       PRES   REMARKS
KALISPELL      LGT RAIN  45  45 100 SE9       29.87R
MISSOULA       LGT RAIN  46  41  82 CALM      29.92R
BUTTE          LGT RAIN  39  35  86 N5        29.92R
MULLAN PASS    LGT RAIN  34  34 100 VRB5      29.88R VSB 1/4
ANACONDA         N/A     39  36  87 SW3       29.92R
DEER LODGE       N/A     43  39  87 CALM      29.92R
EUREKA           N/A     46  43  87 SE8       29.86R
HAMILTON         N/A     46  43  87 NE3       29.91R
LIBBY            N/A     46  45  93 CALM      29.87R
THOMPSON FALLS   N/A     47  45  93 CALM      29.94
$$

MTZ008-052>055-240500-
SOUTHWEST MONTANA

CITY           SKY/WX    TMP DP  RH WIND       PRES   REMARKS
BOZEMAN        LGT RAIN  43  40  89 E6        29.93R
DILLON         CLOUDY    42  35  76 E5        29.89R
ENNIS          CLOUDY    43  36  75 N9        29.95R
$$

MTZ009-010-012-014-046-048-049-054-240500-
EAST SLOPES AND CENTRAL MONTANA

CITY           SKY/WX    TMP DP  RH WIND       PRES   REMARKS
CUT BANK       CLOUDY    42  39  89 NW9       29.85R
GREAT FALLS    LGT RAIN  44  41  89 CALM      29.87R
MALMSTROM AFB  LGT RAIN  44  42  93 SW2       29.88R
HELENA         CLOUDY    47  36  65 W12       29.88R
CHOTEAU          N/A     43  41  93 CALM      29.88R
$$

MTZ011-013-016-021-045-047-050-051-240500-
NORTH CENTRAL MONTANA

CITY           SKY/WX    TMP DP  RH WIND       PRES   REMARKS
HAVRE          CLOUDY    49  42  77 W8        29.80R
LEWISTOWN      CLOUDY    45  37  73 NW10      29.85R
N BAR RANCH      N/A     43  37  81 W12       29.86R
CHINOOK          N/A     50  43  76 W10       29.79R
$$

MTZ017>020-022>027-061-062-240500-
NORTHEAST MONTANA

CITY           SKY/WX    TMP DP  RH WIND       PRES   REMARKS
GLASGOW        CLOUDY    49  41  74 W7        29.75R
JORDAN           N/A     51  41  68 W8        29.80R
SIDNEY         PTCLDY    51  40  65 W8        29.76R
WOLF POINT     PTCLDY    55  44  66 W8        29.76R
PLENTYWOOD       N/A     52  43  71 SW6       29.73R
POPLAR           N/A     54  43  66 W7        29.75R
$$

MTZ028>42-056>058-240500-
SOUTHCENTRAL AND SOUTHEAST MONTANA

CITY           SKY/WX    TMP DP  RH WIND       PRES   REMARKS
BAKER          CLEAR     51  35  54 CALM      29.80R
BILLINGS       CLOUDY    53  37  54 NW9       29.87R
LIVINGSTON     CLOUDY    45  35  68 SW10      29.89R
MILES CITY     CLEAR     54  40  59 NW12      29.81R
FORSYTH          N/A     54  39  58 W3        29.83R
$$

REGIONAL REPORTS...DAKOTAS

CITY           SKY/WX    TMP DP  RH WIND       PRES   REMARKS
WILLISTON      CLEAR     56  38  50 W9        29.74R
MINOT          PTCLDY    59  44  57 SW7       29.73R
DICKINSON      CLEAR     45  34  65 W7        29.76R
BEACH            N/A     48  37  66 NW6       29.82R
CROSBY           N/A     50  39  66 W8        29.75R
WATFORD CITY     N/A     54  37  54 NW5       29.77R
BISMARCK       CLOUDY    60  49  66 NE6       29.77R
GRAND FORKS    MOCLDY    66  49  54 NW14      29.72R
FARGO          CLOUDY    70  45  40 E9        29.69R
BUFFALO SD       N/A     54  36  50 N14       29.74R
RAPID CITY     CLEAR     50  31  48 W5        29.78R
$$

REGIONAL REPORTS...WYOMING/IDAHO/WASHINGTON

CITY           SKY/WX    TMP DP  RH WIND       PRES   REMARKS
GILLETTE       CLEAR     46  32  58 NW7       29.85R
SHERIDAN       CLEAR     46  37  71 W8        29.87R
BUFFALO WY     CLOUDY    50  34  54 NW12      29.89R
CODY           CLOUDY    48  34  57 CALM      29.86R
YELLOWSTONE LA   N/A     30  26  85 CALM      29.96R
IDAHO FALLS    CLEAR     53  32  44 S10       29.86R
SALMON         CLOUDY    48  36  61 CALM      29.85R
BOISE          CLOUDY    62  33  33 NW5       29.81R
SPOKANE        LGT RAIN  53  45  74 SE5       29.84S
$$

REGIONAL REPORTS...ALBERTA

CITY           SKY/WX    TMP DP  RH WIND       PRES   REMARKS
EDMONTON       CLOUDY    48  43  81 NE7       29.83R
CALGARY        CLOUDY    45  39  81 N8        29.85R
LETHBRIDGE     MOCLDY    46  41  81 W16       29.83R
MEDICINE HAT   CLOUDY    50  45  81 NW13      29.78R
WATERTON GATE    N/A     37  36  93 SW6         N/A
MILK RIVER       N/A     45  39  81 NW9         N/A
$$

REGIONAL REPORTS...SASKATCHEWAN

CITY           SKY/WX    TMP DP  RH WIND       PRES   REMARKS
SWIFT CURRENT  CLOUDY    48  46  93 W7        29.66R
REGINA         MOCLDY    46  41  81 S8        29.65R
SASKATOON      CLOUDY    55  46  71 N9        29.68R
CYPRESS HILLS    N/A     43  39  87 NW10G20     N/A
VAL MARIE        N/A     50  41  71 W14         N/A
ROCKGLEN         N/A     46  45  93 SW16        N/A
ASSINIBOIA       N/A     48  46  93 NE7         N/A
$$




USA.gov is the U.S. government's official web portal to all federal, state and local government web resources and services.